Weather in Orzega

Russia / Republic of Karelia     61°38′40″N   34°28′29″E
temp.,
°C
wind,
m/s
gust,
m/s
humid.,
%
clouds,
%
prec.,
mm/h
press.,
hPa
HPBL,
m
25 july, sun
sun2500:00+14wsw51158100 0.0 1014389
03:00+14w51064100 0.0 1014334
06:00+14w3666100 0.0 1014179
09:00+17wsw3561100 0.0 1015297
12:00+21wsw3547100 0.0 10151486
15:00+21sw4649100 0.0 1015907
18:00+22wsw364598 0.0 10151005
21:00+19w4959100 0.0 1016241
26 july, mon
mon2600:00+17w3766100 0.0 1017168
03:00+15w487479 0.0 1018166
06:00+16w497010 0.0 1018200
09:00+18wnw487342 0.4 1018325
12:00+24nnw364682 0.1 10181620
15:00+20sse2264100 0.2 101897
18:00+21n136085 0.3 1018233
21:00+18w117819 0.9 101912
27 july, tue
tue2700:00+16w22871 0.0 102014
03:00+15nw22909 0.0 102148
06:00+16nne128687 0.0 102191
09:00+18ene227336 0.0 1021343
12:00+19ene32683 0.0 1021512
15:00+20ene33583 0.1 1019359
18:00+19sse236115 0.0 1018107
21:00+18ssw22654 0.0 101729
28 july, wed
wed2800:00+16ssw117558 0.0 101713
03:00+17sw247979 0.0 101683
06:00+16sw258219 0.1 1015134
09:00+22wsw24620 0.1 1013367
12:00+25s03465 0.0 10111316
15:00+23se335646 0.0 1009374
18:00+24se34521 0.0 1007530
21:00+21s226544 0.0 100618
29 july, thu
thu2900:00+21sw226099 0.0 100520
03:00+20w236171 0.0 100344
06:00+18wsw1167100 0.0 100219
09:00+21sw3560100 0.0 1001263
12:00+20wsw4781100 3.1 1001322
15:00+20sw488747 7.7 999510
18:00+21wsw6127398 3.4 997765
21:00+20wsw6127395 3.5 996597